User: anonymous   Login
Location: Newark
(7.0858°N, 171.3717°E)
Time: 12:24:51
(UTC+00:00)
Language:

N. Korean satellite - Orbit

View from above orbital plane
View from above orbital plane
View from above satellite
View from above satellite

Ground track
Ground track

The orbit data is extracted from the following two-line orbital elements,

1 39026U 12072A   21296.62231626  .00004255  00000-0  14175-3 0  9997
2 39026  97.2545 286.5002 0032784 288.2999  71.4677 15.31137293492639
Epoch (UTC): 23 October 2021 14:56:08
Eccentricity: 0.0032784
inclination: 97.2545°
perigee height: 450 km
apogee height: 495 km
right ascension of ascending node: 286.5002°
argument of perigee: 288.2999°
revolutions per day: 15.31137293
mean anomaly at epoch: 71.4677°
orbit number at epoch: 49263

The dashed part of the orbit path shows where the satellite is in the earth's shadow,  

DLR